Time,TemperatureF,DewpointF,PressureIn,WindDirection,WindDirectionDegrees,WindSpeedMPH,WindSpeedGustMPH,Humidity,HourlyPrecipIn,Conditions,Clouds,dailyrainin,SoftwareType,DateUTC
2013-01-17 00:00:00,34.7,33.9,29.86,WSW,246,0.0,0.0,97,0.00,,,0.33,Wunderground v.1.15,2013-01-17 05:00:00,
2013-01-17 00:02:00,34.7,33.9,29.86,WSW,246,0.0,0.0,97,0.00,,,0.00,Wunderground v.1.15,2013-01-17 05:02:00,
2013-01-17 00:07:00,34.6,33.8,29.87,WSW,246,0.0,0.0,97,0.00,,,0.00,Wunderground v.1.15,2013-01-17 05:07:00,
2013-01-17 00:12:00,34.5,33.7,29.88,WSW,246,2.0,2.0,97,0.00,,,0.00,Wunderground v.1.15,2013-01-17 05:12:00,
2013-01-17 00:17:00,34.5,33.7,29.87,WSW,246,0.0,2.0,97,0.00,,,0.00,Wunderground v.1.15,2013-01-17 05:17:00,
2013-01-17 00:22:00,34.4,33.6,29.88,WSW,246,1.0,1.0,97,0.00,,,0.00,Wunderground v.1.15,2013-01-17 05:22:00,
2013-01-17 00:27:00,34.3,33.5,29.87,WSW,246,0.0,1.0,97,0.00,,,0.00,Wunderground v.1.15,2013-01-17 05:27:00,
2013-01-17 00:32:00,34.3,33.5,29.88,WNW,300,0.0,1.0,97,0.00,,,0.00,Wunderground v.1.15,2013-01-17 05:32:00,
2013-01-17 00:37:00,34.3,33.5,29.87,North,350,0.0,1.0,97,0.00,,,0.00,Wunderground v.1.15,2013-01-17 05:37:00,
2013-01-17 00:42:00,34.3,33.8,29.88,WNW,292,0.0,1.0,98,0.00,,,0.00,Wunderground v.1.15,2013-01-17 05:42:00,
2013-01-17 00:48:00,34.3,33.5,29.88,SE,138,0.0,2.0,97,0.00,,,0.00,Wunderground v.1.15,2013-01-17 05:48:00,
2013-01-17 00:53:00,34.2,34.0,29.89,WSW,244,0.0,-999.0,97,-99.99,,,0.00,weatherlink.com 1.10,2013-01-17 05:53:00,
2013-01-17 00:58:00,34.3,33.8,29.88,West,273,1.0,2.0,98,0.00,,,0.00,Wunderground v.1.15,2013-01-17 05:58:00,
2013-01-17 01:04:00,34.2,33.7,29.88,West,266,0.0,2.0,98,0.00,,,0.00,Wunderground v.1.15,2013-01-17 06:04:00,
2013-01-17 01:09:00,34.2,33.7,29.88,WNW,303,0.0,2.0,98,0.00,,,0.00,Wunderground v.1.15,2013-01-17 06:09:00,
2013-01-17 01:14:00,34.2,33.7,29.89,WNW,303,0.0,1.0,98,0.00,,,0.00,Wunderground v.1.15,2013-01-17 06:14:00,
2013-01-17 01:19:00,34.2,33.7,29.89,WNW,303,0.0,1.0,98,0.00,,,0.00,Wunderground v.1.15,2013-01-17 06:19:00,
2013-01-17 01:24:00,34.1,33.3,29.89,WNW,303,0.0,0.0,97,0.00,,,0.00,Wunderground v.1.15,2013-01-17 06:24:00,
2013-01-17 01:30:00,34.1,33.3,29.88,WNW,303,0.0,0.0,97,0.00,,,0.00,Wunderground v.1.15,2013-01-17 06:30:00,
2013-01-17 01:35:00,34.1,33.3,29.88,SSW,207,0.0,2.0,97,0.00,,,0.00,Wunderground v.1.15,2013-01-17 06:35:00,
2013-01-17 01:40:00,34.1,33.6,29.87,SSW,207,0.0,0.0,98,0.00,,,0.00,Wunderground v.1.15,2013-01-17 06:40:00,
2013-01-17 01:45:00,34.1,33.6,29.87,SSW,207,0.0,1.0,98,0.00,,,0.00,Wunderground v.1.15,2013-01-17 06:45:00,
2013-01-17 01:51:00,34.1,33.3,29.87,SSW,207,0.0,0.0,97,0.00,,,0.00,Wunderground v.1.15,2013-01-17 06:51:00,
2013-01-17 01:56:00,34.1,33.3,29.87,SSW,207,0.0,0.0,97,0.00,,,0.00,Wunderground v.1.15,2013-01-17 06:56:00,
2013-01-17 02:01:00,34.0,33.2,29.87,SSW,207,0.0,0.0,97,0.00,,,0.00,Wunderground v.1.15,2013-01-17 07:01:00,
2013-01-17 02:06:00,34.0,33.2,29.88,North,350,2.0,2.0,97,0.00,,,0.00,Wunderground v.1.15,2013-01-17 07:06:00,
2013-01-17 02:11:00,33.9,33.1,29.88,North,350,0.0,0.0,97,0.00,,,0.00,Wunderground v.1.15,2013-01-17 07:11:00,
2013-01-17 02:16:00,33.9,33.4,29.88,NNW,332,1.0,3.0,98,0.00,,,0.00,Wunderground v.1.15,2013-01-17 07:16:00,
2013-01-17 02:21:00,34.0,33.5,29.88,NNW,332,0.0,0.0,98,0.00,,,0.00,Wunderground v.1.15,2013-01-17 07:21:00,
2013-01-17 02:26:00,34.0,33.5,29.88,WSW,250,0.0,2.0,98,0.00,,,0.00,Wunderground v.1.15,2013-01-17 07:26:00,
2013-01-17 02:31:00,34.1,33.6,29.88,SW,224,0.0,1.0,98,0.00,,,0.00,Wunderground v.1.15,2013-01-17 07:31:00,
2013-01-17 02:36:00,34.1,33.6,29.89,SW,224,0.0,1.0,98,0.00,,,0.00,Wunderground v.1.15,2013-01-17 07:36:00,
2013-01-17 02:41:00,34.1,33.6,29.88,SW,224,0.0,0.0,98,0.00,,,0.00,Wunderground v.1.15,2013-01-17 07:41:00,
2013-01-17 02:46:00,34.1,33.6,29.89,SW,224,0.0,2.0,98,0.00,,,0.00,Wunderground v.1.15,2013-01-17 07:46:00,
2013-01-17 02:51:00,34.1,33.6,29.88,SW,224,0.0,0.0,98,0.00,,,0.00,Wunderground v.1.15,2013-01-17 07:51:00,
2013-01-17 02:56:00,34.1,33.6,29.88,SW,224,0.0,2.0,98,0.00,,,0.00,Wunderground v.1.15,2013-01-17 07:56:00,
2013-01-17 03:01:00,34.0,33.5,29.88,SW,224,0.0,0.0,98,0.00,,,0.00,Wunderground v.1.15,2013-01-17 08:01:00,
2013-01-17 03:06:00,34.0,33.5,29.88,SW,224,0.0,0.0,98,0.00,,,0.00,Wunderground v.1.15,2013-01-17 08:06:00,
2013-01-17 03:11:00,34.0,33.5,29.89,SW,220,0.0,2.0,98,0.00,,,0.00,Wunderground v.1.15,2013-01-17 08:11:00,
2013-01-17 03:16:00,34.0,33.5,29.88,NE,54,3.0,3.0,98,0.00,,,0.00,Wunderground v.1.15,2013-01-17 08:16:00,
2013-01-17 03:21:00,34.0,33.5,29.89,North,360,0.0,1.0,98,0.00,,,0.00,Wunderground v.1.15,2013-01-17 08:21:00,
2013-01-17 03:26:00,33.9,33.4,29.89,North,360,0.0,1.0,98,0.00,,,0.00,Wunderground v.1.15,2013-01-17 08:26:00,
2013-01-17 03:31:00,33.9,33.4,29.88,WNW,303,3.0,3.0,98,0.00,,,0.00,Wunderground v.1.15,2013-01-17 08:31:00,
2013-01-17 03:36:00,33.9,33.4,29.88,SW,232,1.0,3.0,98,0.00,,,0.00,Wunderground v.1.15,2013-01-17 08:36:00,
2013-01-17 03:41:00,33.8,33.3,29.89,SW,232,0.0,0.0,98,0.00,,,0.00,Wunderground v.1.15,2013-01-17 08:41:00,
2013-01-17 03:46:00,33.8,33.3,29.90,SW,232,0.0,0.0,98,0.00,,,0.00,Wunderground v.1.15,2013-01-17 08:46:00,
2013-01-17 03:51:00,33.8,33.3,29.89,SW,232,0.0,0.0,98,0.00,,,0.00,Wunderground v.1.15,2013-01-17 08:51:00,
2013-01-17 03:56:00,33.8,33.3,29.88,SE,128,0.0,3.0,98,0.00,,,0.00,Wunderground v.1.15,2013-01-17 08:56:00,
2013-01-17 04:01:00,33.7,33.2,29.88,SE,128,0.0,0.0,98,0.00,,,0.00,Wunderground v.1.15,2013-01-17 09:01:00,
2013-01-17 04:06:00,33.7,33.2,29.89,SE,128,0.0,1.0,98,0.00,,,0.00,Wunderground v.1.15,2013-01-17 09:06:00,
2013-01-17 04:11:00,33.7,33.2,29.88,SE,128,0.0,0.0,98,0.00,,,0.00,Wunderground v.1.15,2013-01-17 09:11:00,
2013-01-17 04:16:00,33.7,33.2,29.89,SE,128,0.0,0.0,98,0.00,,,0.00,Wunderground v.1.15,2013-01-17 09:16:00,
2013-01-17 04:21:00,33.7,33.2,29.89,WSW,254,0.0,3.0,98,0.00,,,0.00,Wunderground v.1.15,2013-01-17 09:21:00,
2013-01-17 04:26:00,33.7,33.2,29.88,WSW,254,0.0,3.0,98,0.00,,,0.00,Wunderground v.1.15,2013-01-17 09:26:00,
2013-01-17 04:31:00,33.7,33.2,29.88,WSW,257,4.0,4.0,98,0.00,,,0.00,Wunderground v.1.15,2013-01-17 09:31:00,
2013-01-17 04:37:00,33.8,33.3,29.88,WSW,246,1.0,4.0,98,0.00,,,0.00,Wunderground v.1.15,2013-01-17 09:37:00,
2013-01-17 04:42:00,33.9,33.4,29.89,SSW,204,0.0,3.0,98,0.00,,,0.00,Wunderground v.1.15,2013-01-17 09:42:00,
2013-01-17 04:47:00,34.0,33.5,29.89,SSW,204,0.0,3.0,98,0.00,,,0.01,Wunderground v.1.15,2013-01-17 09:47:00,
2013-01-17 04:52:00,34.0,33.5,29.89,SSW,204,1.0,1.0,98,0.00,,,0.01,Wunderground v.1.15,2013-01-17 09:52:00,
2013-01-17 04:57:00,34.1,33.6,29.87,SSW,204,0.0,2.0,98,0.00,,,0.01,Wunderground v.1.15,2013-01-17 09:57:00,
2013-01-17 05:02:00,34.1,33.6,29.87,WNW,302,3.0,3.0,98,0.00,,,0.01,Wunderground v.1.15,2013-01-17 10:02:00,
2013-01-17 05:07:00,34.1,33.6,29.88,WNW,296,0.0,3.0,98,0.00,,,0.01,Wunderground v.1.15,2013-01-17 10:07:00,
2013-01-17 05:12:00,34.1,33.6,29.89,WNW,296,0.0,2.0,98,0.00,,,0.01,Wunderground v.1.15,2013-01-17 10:12:00,
2013-01-17 05:17:00,34.1,33.6,29.88,WNW,296,0.0,2.0,98,0.00,,,0.01,Wunderground v.1.15,2013-01-17 10:17:00,
2013-01-17 05:22:00,34.2,33.7,29.89,SSW,209,0.0,1.0,98,0.00,,,0.01,Wunderground v.1.15,2013-01-17 10:22:00,
2013-01-17 05:27:00,34.2,33.7,29.89,SSW,209,0.0,2.0,98,0.00,,,0.01,Wunderground v.1.15,2013-01-17 10:27:00,
2013-01-17 05:32:00,34.3,33.8,29.90,SSW,209,0.0,1.0,98,0.00,,,0.01,Wunderground v.1.15,2013-01-17 10:32:00,
2013-01-17 05:37:00,34.3,33.8,29.89,SSW,209,0.0,1.0,98,0.00,,,0.01,Wunderground v.1.15,2013-01-17 10:37:00,
2013-01-17 05:42:00,34.3,33.8,29.89,WSW,239,0.0,0.0,98,0.00,,,0.01,Wunderground v.1.15,2013-01-17 10:42:00,
2013-01-17 05:47:00,34.3,33.8,29.89,WSW,239,0.0,0.0,98,0.00,,,0.01,Wunderground v.1.15,2013-01-17 10:47:00,
2013-01-17 05:52:00,34.3,33.8,29.90,WSW,247,0.0,0.0,98,0.00,,,0.01,Wunderground v.1.15,2013-01-17 10:52:00,
2013-01-17 05:57:00,34.2,33.7,29.91,WSW,247,0.0,0.0,98,0.00,,,0.01,Wunderground v.1.15,2013-01-17 10:57:00,
2013-01-17 06:02:00,34.1,33.6,29.91,WSW,246,0.0,2.0,98,0.00,,,0.01,Wunderground v.1.15,2013-01-17 11:02:00,
2013-01-17 06:07:00,34.1,33.3,29.90,WNW,300,2.0,3.0,97,0.00,,,0.01,Wunderground v.1.15,2013-01-17 11:07:00,
2013-01-17 06:12:00,34.1,33.3,29.91,NW,308,0.0,1.0,97,0.00,,,0.01,Wunderground v.1.15,2013-01-17 11:12:00,
2013-01-17 06:17:00,34.0,33.2,29.92,NW,308,0.0,1.0,97,0.00,,,0.01,Wunderground v.1.15,2013-01-17 11:17:00,
2013-01-17 06:22:00,34.0,33.2,29.92,NW,308,1.0,2.0,97,0.00,,,0.01,Wunderground v.1.15,2013-01-17 11:22:00,
2013-01-17 06:27:00,34.2,33.7,29.91,NNW,344,0.0,5.0,98,0.00,,,0.01,Wunderground v.1.15,2013-01-17 11:27:00,
2013-01-17 06:32:00,34.3,33.8,29.92,NNW,342,1.0,3.0,98,0.00,,,0.01,Wunderground v.1.15,2013-01-17 11:32:00,
2013-01-17 06:37:00,34.3,33.5,29.92,West,280,0.0,3.0,97,0.00,,,0.01,Wunderground v.1.15,2013-01-17 11:37:00,
2013-01-17 06:42:00,34.3,33.5,29.93,West,280,0.0,0.0,97,0.00,,,0.01,Wunderground v.1.15,2013-01-17 11:42:00,
2013-01-17 06:47:00,34.3,33.5,29.94,WNW,299,2.0,2.0,97,0.00,,,0.01,Wunderground v.1.15,2013-01-17 11:47:00,
2013-01-17 06:52:00,34.2,33.4,29.93,WSW,258,0.0,3.0,97,0.00,,,0.01,Wunderground v.1.15,2013-01-17 11:52:00,
2013-01-17 06:57:00,34.1,33.1,29.92,WSW,258,0.0,3.0,96,0.00,,,0.01,Wunderground v.1.15,2013-01-17 11:57:00,
2013-01-17 07:02:00,34.0,33.0,29.92,WSW,258,0.0,0.0,96,0.00,,,0.01,Wunderground v.1.15,2013-01-17 12:02:00,
2013-01-17 07:07:00,33.8,32.8,29.92,WSW,258,0.0,1.0,96,0.00,,,0.01,Wunderground v.1.15,2013-01-17 12:07:00,
2013-01-17 07:12:00,33.7,32.7,29.94,WSW,258,0.0,0.0,96,0.00,,,0.01,Wunderground v.1.15,2013-01-17 12:12:00,
2013-01-17 07:17:00,33.5,32.5,29.94,WSW,258,0.0,1.0,96,0.00,,,0.01,Wunderground v.1.15,2013-01-17 12:17:00,
2013-01-17 07:22:00,33.4,32.4,29.95,NNW,329,0.0,0.0,96,0.00,,,0.01,Wunderground v.1.15,2013-01-17 12:22:00,
2013-01-17 07:28:00,33.3,32.3,29.95,NNW,329,0.0,2.0,96,0.00,,,0.01,Wunderground v.1.15,2013-01-17 12:28:00,
2013-01-17 07:33:00,33.3,32.5,29.95,NNW,329,0.0,0.0,97,0.00,,,0.01,Wunderground v.1.15,2013-01-17 12:33:00,
2013-01-17 07:38:00,33.3,32.5,29.96,NNW,329,0.0,1.0,97,0.00,,,0.01,Wunderground v.1.15,2013-01-17 12:38:00,
2013-01-17 07:43:00,33.4,32.6,29.96,NNW,329,0.0,2.0,97,0.00,,,0.01,Wunderground v.1.15,2013-01-17 12:43:00,
2013-01-17 07:48:00,33.6,32.8,29.96,NNW,329,0.0,2.0,97,0.00,,,0.01,Wunderground v.1.15,2013-01-17 12:48:00,
2013-01-17 07:53:00,33.8,33.0,29.97,NNW,329,0.0,0.0,97,0.00,,,0.01,Wunderground v.1.15,2013-01-17 12:53:00,
2013-01-17 07:58:00,33.9,33.1,29.97,NNE,30,0.0,1.0,97,0.00,,,0.01,Wunderground v.1.15,2013-01-17 12:58:00,
2013-01-17 08:03:00,34.1,33.3,29.98,North,5,0.0,2.0,97,0.00,,,0.01,Wunderground v.1.15,2013-01-17 13:03:00,
2013-01-17 08:08:00,34.3,33.5,29.98,North,360,1.0,2.0,97,0.00,,,0.01,Wunderground v.1.15,2013-01-17 13:08:00,
2013-01-17 08:13:00,34.4,33.6,29.97,North,360,0.0,3.0,97,0.00,,,0.01,Wunderground v.1.15,2013-01-17 13:13:00,
2013-01-17 08:18:00,34.6,33.8,29.99,SW,224,4.0,6.0,97,0.00,,,0.01,Wunderground v.1.15,2013-01-17 13:18:00,
2013-01-17 08:23:00,34.8,34.0,29.97,SW,221,0.0,2.0,97,0.00,,,0.01,Wunderground v.1.15,2013-01-17 13:23:00,
2013-01-17 08:28:00,35.1,34.1,29.98,SW,221,0.0,2.0,96,0.00,,,0.01,Wunderground v.1.15,2013-01-17 13:28:00,
2013-01-17 08:33:00,35.3,34.3,29.99,West,279,0.0,2.0,96,0.00,,,0.01,Wunderground v.1.15,2013-01-17 13:33:00,
2013-01-17 08:38:00,35.7,34.4,30.00,WNW,292,0.0,4.0,95,0.00,,,0.01,Wunderground v.1.15,2013-01-17 13:38:00,
2013-01-17 08:43:00,36.0,34.2,30.00,SW,217,4.0,4.0,93,0.00,,,0.01,Wunderground v.1.15,2013-01-17 13:43:00,
2013-01-17 08:48:00,36.3,34.2,30.00,West,272,2.0,4.0,92,0.00,,,0.01,Wunderground v.1.15,2013-01-17 13:48:00,
2013-01-17 08:53:00,36.6,34.5,30.00,West,272,0.0,2.0,92,0.00,,,0.01,Wunderground v.1.15,2013-01-17 13:53:00,
2013-01-17 08:58:00,36.8,34.7,30.00,NW,325,0.0,2.0,92,0.00,,,0.01,Wunderground v.1.15,2013-01-17 13:58:00,
2013-01-17 09:03:00,37.0,34.3,30.00,SW,231,0.0,3.0,90,0.00,,,0.01,Wunderground v.1.15,2013-01-17 14:03:00,
2013-01-17 09:09:00,37.0,34.1,30.00,WNW,301,2.0,3.0,89,0.00,,,0.01,Wunderground v.1.15,2013-01-17 14:09:00,
2013-01-17 09:14:00,37.1,34.2,30.00,WNW,301,0.0,3.0,89,0.00,,,0.01,Wunderground v.1.15,2013-01-17 14:14:00,
2013-01-17 09:19:00,37.1,34.2,30.00,WNW,301,0.0,3.0,89,0.00,,,0.02,Wunderground v.1.15,2013-01-17 14:19:00,
2013-01-17 09:24:00,37.3,33.5,30.01,WSW,250,1.0,4.0,86,0.00,,,0.02,Wunderground v.1.15,2013-01-17 14:24:00,
2013-01-17 09:29:00,37.4,33.6,30.01,WSW,256,0.0,4.0,86,0.00,,,0.02,Wunderground v.1.15,2013-01-17 14:29:00,
2013-01-17 09:34:00,37.6,33.8,30.01,SW,215,0.0,4.0,86,0.00,,,0.02,Wunderground v.1.15,2013-01-17 14:34:00,
2013-01-17 09:39:00,37.9,33.8,30.01,SSW,211,0.0,4.0,85,0.00,,,0.02,Wunderground v.1.15,2013-01-17 14:39:00,
2013-01-17 09:44:00,38.2,33.5,30.01,South,180,0.0,2.0,83,0.00,,,0.02,Wunderground v.1.15,2013-01-17 14:44:00,
2013-01-17 09:49:00,38.3,33.6,30.01,South,180,0.0,2.0,83,0.00,,,0.03,Wunderground v.1.15,2013-01-17 14:49:00,
2013-01-17 09:54:00,38.4,33.4,30.01,WNW,286,1.0,2.0,82,0.00,,,0.03,Wunderground v.1.15,2013-01-17 14:54:00,
2013-01-17 09:59:00,38.6,33.6,30.02,WSW,257,0.0,4.0,82,0.00,,,0.03,Wunderground v.1.15,2013-01-17 14:59:00,
2013-01-17 10:04:00,38.8,33.5,30.02,WSW,252,0.0,4.0,81,0.00,,,0.03,Wunderground v.1.15,2013-01-17 15:04:00,
2013-01-17 10:09:00,38.9,32.9,30.01,WNW,290,3.0,5.0,79,0.00,,,0.03,Wunderground v.1.15,2013-01-17 15:09:00,
2013-01-17 10:14:00,38.9,32.9,30.02,West,279,2.0,4.0,79,0.00,,,0.04,Wunderground v.1.15,2013-01-17 15:14:00,
2013-01-17 10:19:00,39.0,33.4,30.01,WNW,284,1.0,5.0,80,0.00,,,0.04,Wunderground v.1.15,2013-01-17 15:19:00,
2013-01-17 10:24:00,39.2,34.2,30.02,NW,308,2.0,3.0,82,0.00,,,0.04,Wunderground v.1.15,2013-01-17 15:24:00,
2013-01-17 10:29:00,39.4,33.1,30.01,NW,326,1.0,4.0,78,0.00,,,0.04,Wunderground v.1.15,2013-01-17 15:29:00,
2013-01-17 10:34:00,39.5,32.9,30.01,WNW,296,0.0,5.0,77,0.00,,,0.04,Wunderground v.1.15,2013-01-17 15:34:00,
2013-01-17 10:39:00,39.5,32.9,30.01,NW,326,5.0,5.0,77,0.00,,,0.04,Wunderground v.1.15,2013-01-17 15:39:00,
2013-01-17 10:44:00,39.6,33.0,30.01,WSW,254,0.0,4.0,77,0.00,,,0.05,Wunderground v.1.15,2013-01-17 15:44:00,
2013-01-17 10:49:00,39.9,32.9,30.01,WNW,291,4.0,4.0,76,0.00,,,0.05,Wunderground v.1.15,2013-01-17 15:49:00,
2013-01-17 10:54:00,40.0,32.7,30.00,NW,309,0.0,5.0,75,0.00,,,0.05,Wunderground v.1.15,2013-01-17 15:54:00,
2013-01-17 10:59:00,40.1,32.8,29.99,NW,309,0.0,5.0,75,0.00,,,0.05,Wunderground v.1.15,2013-01-17 15:59:00,
2013-01-17 11:04:00,40.1,32.5,29.99,NW,313,2.0,5.0,74,0.04,,,0.06,Wunderground v.1.15,2013-01-17 16:04:00,
2013-01-17 11:09:00,40.0,33.4,30.00,NW,313,0.0,5.0,77,0.04,,,0.06,Wunderground v.1.15,2013-01-17 16:09:00,
2013-01-17 11:14:00,40.0,32.7,30.00,West,269,0.0,3.0,75,0.04,,,0.06,Wunderground v.1.15,2013-01-17 16:14:00,
2013-01-17 11:19:00,40.1,32.8,30.01,West,269,0.0,3.0,75,0.00,,,0.06,Wunderground v.1.15,2013-01-17 16:19:00,
2013-01-17 11:24:00,40.2,33.6,30.01,SSW,207,0.0,3.0,77,0.00,,,0.07,Wunderground v.1.15,2013-01-17 16:24:00,
2013-01-17 11:29:00,40.4,32.8,30.00,NW,304,4.0,4.0,74,0.00,,,0.07,Wunderground v.1.15,2013-01-17 16:29:00,
2013-01-17 11:34:00,40.5,32.5,30.00,South,188,2.0,5.0,73,0.00,,,0.07,Wunderground v.1.15,2013-01-17 16:34:00,
2013-01-17 11:39:00,40.7,33.1,30.00,NW,308,0.0,5.0,74,0.04,,,0.08,Wunderground v.1.15,2013-01-17 16:39:00,
2013-01-17 11:44:00,40.7,33.1,29.99,West,279,3.0,6.0,74,0.04,,,0.08,Wunderground v.1.15,2013-01-17 16:44:00,
2013-01-17 11:49:00,40.8,33.5,29.99,WSW,238,2.0,6.0,75,0.04,,,0.08,Wunderground v.1.15,2013-01-17 16:49:00,
2013-01-17 11:54:00,40.9,33.2,29.99,NW,323,4.0,5.0,74,0.04,,,0.09,Wunderground v.1.15,2013-01-17 16:54:00,
2013-01-17 11:59:00,40.8,32.8,29.99,NW,317,2.0,7.0,73,0.04,,,0.09,Wunderground v.1.15,2013-01-17 16:59:00,
2013-01-17 12:04:00,40.7,32.7,29.99,WNW,296,1.0,5.0,73,0.04,,,0.09,Wunderground v.1.15,2013-01-17 17:04:00,
2013-01-17 12:09:00,41.0,33.3,29.99,WSW,242,3.0,6.0,74,0.04,,,0.10,Wunderground v.1.15,2013-01-17 17:09:00,
2013-01-17 12:14:00,41.4,32.7,29.99,NW,304,1.0,5.0,71,0.04,,,0.10,Wunderground v.1.15,2013-01-17 17:14:00,
2013-01-17 12:19:00,42.0,33.3,29.99,South,178,0.0,5.0,71,0.05,,,0.10,Wunderground v.1.15,2013-01-17 17:19:00,
2013-01-17 12:24:00,42.7,33.6,30.00,WNW,288,0.0,4.0,70,0.05,,,0.11,Wunderground v.1.15,2013-01-17 17:24:00,
2013-01-17 12:29:00,43.2,34.1,30.00,WNW,286,2.0,5.0,70,0.10,,,0.12,Wunderground v.1.15,2013-01-17 17:29:00,
2013-01-17 12:34:00,43.6,33.4,29.99,NNW,340,1.0,7.0,67,0.11,,,0.13,Wunderground v.1.15,2013-01-17 17:34:00,
2013-01-17 12:39:00,43.7,33.1,30.00,WNW,296,4.0,7.0,66,0.13,,,0.14,Wunderground v.1.15,2013-01-17 17:39:00,
2013-01-17 12:44:00,43.4,32.4,29.99,NNW,338,1.0,7.0,65,0.10,,,0.15,Wunderground v.1.15,2013-01-17 17:44:00,
2013-01-17 12:49:00,43.3,32.7,30.00,WNW,284,1.0,8.0,66,0.08,,,0.16,Wunderground v.1.15,2013-01-17 17:49:00,
2013-01-17 12:54:00,43.4,33.2,30.00,West,269,2.0,5.0,67,0.08,,,0.16,Wunderground v.1.15,2013-01-17 17:54:00,
2013-01-17 12:59:00,43.5,32.5,30.01,WNW,296,2.0,5.0,65,0.07,,,0.17,Wunderground v.1.15,2013-01-17 17:59:00,
2013-01-17 13:04:00,43.6,33.0,30.00,North,10,1.0,5.0,66,0.07,,,0.17,Wunderground v.1.15,2013-01-17 18:04:00,
2013-01-17 13:09:00,43.8,33.6,30.00,WNW,295,3.0,5.0,67,0.08,,,0.18,Wunderground v.1.15,2013-01-17 18:09:00,
2013-01-17 13:14:00,43.9,33.3,30.00,NNW,338,3.0,5.0,66,0.07,,,0.19,Wunderground v.1.15,2013-01-17 18:14:00,
2013-01-17 13:19:00,43.8,32.8,30.00,North,5,4.0,7.0,65,0.07,,,0.19,Wunderground v.1.15,2013-01-17 18:19:00,
2013-01-17 13:24:00,43.5,31.7,30.00,NNW,331,3.0,6.0,63,0.07,,,0.20,Wunderground v.1.15,2013-01-17 18:24:00,
2013-01-17 13:29:00,43.4,32.8,30.00,NNE,18,5.0,6.0,66,0.07,,,0.20,Wunderground v.1.15,2013-01-17 18:29:00,
2013-01-17 13:34:00,43.2,32.2,30.00,WNW,286,3.0,8.0,65,0.06,,,0.21,Wunderground v.1.15,2013-01-17 18:34:00,
2013-01-17 13:39:00,43.1,32.1,30.00,North,351,0.0,8.0,65,0.06,,,0.21,Wunderground v.1.15,2013-01-17 18:39:00,
2013-01-17 13:44:00,43.0,31.6,30.00,NNW,346,4.0,8.0,64,0.05,,,0.21,Wunderground v.1.15,2013-01-17 18:44:00,
2013-01-17 13:49:00,43.0,31.6,30.00,WSW,241,3.0,8.0,64,0.04,,,0.22,Wunderground v.1.15,2013-01-17 18:49:00,
2013-01-17 13:54:00,43.2,32.2,30.00,NNW,332,2.0,8.0,65,0.04,,,0.22,Wunderground v.1.15,2013-01-17 18:54:00,
2013-01-17 14:00:00,43.1,31.4,30.00,WNW,303,2.0,8.0,63,0.04,,,0.22,Wunderground v.1.15,2013-01-17 19:00:00,
2013-01-17 14:05:00,43.0,31.3,30.00,ESE,109,2.0,5.0,63,0.04,,,0.22,Wunderground v.1.15,2013-01-17 19:05:00,
2013-01-17 14:10:00,43.0,30.9,30.00,NW,317,1.0,3.0,62,0.00,,,0.22,Wunderground v.1.15,2013-01-17 19:10:00,
2013-01-17 14:15:00,43.0,31.6,30.00,North,355,0.0,8.0,64,0.00,,,0.22,Wunderground v.1.15,2013-01-17 19:15:00,
2013-01-17 14:20:00,43.0,32.4,30.01,NNW,332,2.0,2.0,66,0.00,,,0.23,Wunderground v.1.15,2013-01-17 19:20:00,
2013-01-17 14:25:00,43.0,31.6,30.01,NNW,331,1.0,4.0,64,0.00,,,0.23,Wunderground v.1.15,2013-01-17 19:25:00,
2013-01-17 14:30:00,43.0,31.3,30.01,NNW,341,2.0,4.0,63,0.00,,,0.23,Wunderground v.1.15,2013-01-17 19:30:00,
2013-01-17 14:35:00,42.9,31.6,30.01,North,360,3.0,5.0,64,0.00,,,0.23,Wunderground v.1.15,2013-01-17 19:35:00,
2013-01-17 14:40:00,42.8,30.7,30.01,NNW,331,3.0,3.0,62,0.00,,,0.24,Wunderground v.1.15,2013-01-17 19:40:00,
2013-01-17 14:45:00,42.7,31.0,30.01,NW,314,3.0,5.0,63,0.00,,,0.24,Wunderground v.1.15,2013-01-17 19:45:00,
2013-01-17 14:50:00,42.5,31.6,30.01,North,350,3.0,5.0,65,0.00,,,0.24,Wunderground v.1.15,2013-01-17 19:50:00,
2013-01-17 14:55:00,42.4,31.1,30.01,WNW,296,2.0,6.0,64,0.00,,,0.24,Wunderground v.1.15,2013-01-17 19:55:00,
2013-01-17 15:00:00,42.4,31.1,30.01,WNW,292,2.0,3.0,64,0.00,,,0.24,Wunderground v.1.15,2013-01-17 20:00:00,
2013-01-17 15:05:00,42.4,31.5,30.01,North,360,3.0,5.0,65,0.00,,,0.25,Wunderground v.1.15,2013-01-17 20:05:00,
2013-01-17 15:10:00,42.3,31.7,30.01,North,5,0.0,1.0,66,0.00,,,0.25,Wunderground v.1.15,2013-01-17 20:10:00,
2013-01-17 15:15:00,42.3,31.7,30.01,NNW,331,4.0,5.0,66,0.00,,,0.25,Wunderground v.1.15,2013-01-17 20:15:00,
2013-01-17 15:20:00,42.2,30.9,30.01,WNW,289,1.0,3.0,64,0.00,,,0.25,Wunderground v.1.15,2013-01-17 20:20:00,
2013-01-17 15:25:00,42.0,31.1,30.01,NNW,333,3.0,4.0,65,0.00,,,0.25,Wunderground v.1.15,2013-01-17 20:25:00,
2013-01-17 15:30:00,41.9,31.7,30.01,WNW,286,3.0,3.0,67,0.00,,,0.25,Wunderground v.1.15,2013-01-17 20:30:00,
2013-01-17 15:36:00,41.8,30.9,30.01,NNE,15,1.0,5.0,65,0.00,,,0.25,Wunderground v.1.15,2013-01-17 20:36:00,
2013-01-17 15:41:00,41.5,31.0,30.02,NW,324,4.0,5.0,66,0.00,,,0.26,Wunderground v.1.15,2013-01-17 20:41:00,
2013-01-17 15:46:00,41.3,30.4,30.02,NNW,336,0.0,6.0,65,0.00,,,0.26,Wunderground v.1.15,2013-01-17 20:46:00,
2013-01-17 15:51:00,41.3,30.8,30.02,WSW,246,1.0,4.0,66,0.00,,,0.26,Wunderground v.1.15,2013-01-17 20:51:00,
2013-01-17 15:56:00,41.1,30.6,30.01,NNW,340,0.0,5.0,66,0.00,,,0.26,Wunderground v.1.15,2013-01-17 20:56:00,
2013-01-17 16:01:00,41.0,30.5,30.02,NNW,340,1.0,2.0,66,0.00,,,0.26,Wunderground v.1.15,2013-01-17 21:01:00,
2013-01-17 16:06:00,40.9,31.1,30.03,North,355,0.0,4.0,68,0.00,,,0.26,Wunderground v.1.15,2013-01-17 21:06:00,
2013-01-17 16:11:00,40.7,31.3,30.03,North,355,0.0,1.0,69,0.00,,,0.26,Wunderground v.1.15,2013-01-17 21:11:00,
2013-01-17 16:16:00,40.5,30.8,30.03,NW,311,0.0,2.0,68,0.00,,,0.26,Wunderground v.1.15,2013-01-17 21:16:00,
2013-01-17 16:21:00,40.4,31.0,30.03,NNW,345,0.0,2.0,69,0.00,,,0.26,Wunderground v.1.15,2013-01-17 21:21:00,
2013-01-17 16:26:00,40.2,30.8,30.04,NNW,345,1.0,2.0,69,0.00,,,0.26,Wunderground v.1.15,2013-01-17 21:26:00,
2013-01-17 16:31:00,40.1,31.4,30.04,NNW,345,0.0,0.0,71,0.00,,,0.26,Wunderground v.1.15,2013-01-17 21:31:00,
2013-01-17 16:36:00,39.9,32.3,30.04,NNW,345,0.0,2.0,74,0.00,,,0.26,Wunderground v.1.15,2013-01-17 21:36:00,
2013-01-17 16:41:00,39.6,31.7,30.04,NNW,345,0.0,0.0,73,0.00,,,0.27,Wunderground v.1.15,2013-01-17 21:41:00,
2013-01-17 16:46:00,39.4,32.1,30.04,NNW,345,0.0,2.0,75,0.00,,,0.27,Wunderground v.1.15,2013-01-17 21:46:00,
2013-01-17 16:51:00,39.2,32.6,30.04,NNW,345,0.0,0.0,77,0.00,,,0.27,Wunderground v.1.15,2013-01-17 21:51:00,
2013-01-17 16:56:00,38.9,32.6,30.05,NNW,345,0.0,0.0,78,0.00,,,0.27,Wunderground v.1.15,2013-01-17 21:56:00,
2013-01-17 17:01:00,38.7,33.1,30.05,NNW,345,0.0,0.0,80,0.00,,,0.27,Wunderground v.1.15,2013-01-17 22:01:00,
2013-01-17 17:06:00,38.4,33.4,30.03,NNW,345,0.0,0.0,82,0.00,,,0.27,Wunderground v.1.15,2013-01-17 22:06:00,
2013-01-17 17:11:00,38.2,33.5,30.04,NE,49,2.0,4.0,83,0.00,,,0.27,Wunderground v.1.15,2013-01-17 22:11:00,
2013-01-17 17:16:00,37.9,32.9,30.05,NE,49,0.0,4.0,82,0.00,,,0.27,Wunderground v.1.15,2013-01-17 22:16:00,
2013-01-17 17:21:00,37.7,33.0,30.06,NE,49,0.0,0.0,83,0.00,,,0.27,Wunderground v.1.15,2013-01-17 22:21:00,
2013-01-17 17:26:00,37.5,32.8,30.06,NE,49,2.0,2.0,83,0.00,,,0.27,Wunderground v.1.15,2013-01-17 22:26:00,
2013-01-17 17:31:00,37.3,32.9,30.05,NE,49,0.0,0.0,84,0.00,,,0.27,Wunderground v.1.15,2013-01-17 22:31:00,
2013-01-17 17:36:00,37.1,33.0,30.05,NE,49,0.0,0.0,85,0.00,,,0.27,Wunderground v.1.15,2013-01-17 22:36:00,
2013-01-17 17:41:00,37.0,32.3,30.07,NE,49,0.0,0.0,83,0.00,,,0.27,Wunderground v.1.15,2013-01-17 22:41:00,
2013-01-17 17:46:00,37.0,32.3,30.07,NE,49,0.0,1.0,83,0.00,,,0.27,Wunderground v.1.15,2013-01-17 22:46:00,
2013-01-17 17:51:00,37.0,32.9,30.07,North,5,0.0,1.0,85,0.00,,,0.27,Wunderground v.1.15,2013-01-17 22:51:00,
2013-01-17 17:56:00,36.9,32.8,30.06,North,5,0.0,1.0,85,0.00,,,0.27,Wunderground v.1.15,2013-01-17 22:56:00,
2013-01-17 18:01:00,36.8,32.7,30.06,North,5,0.0,0.0,85,0.00,,,0.27,Wunderground v.1.15,2013-01-17 23:01:00,
2013-01-17 18:06:00,36.8,32.4,30.07,North,5,0.0,0.0,84,0.00,,,0.27,Wunderground v.1.15,2013-01-17 23:06:00,
2013-01-17 18:11:00,36.7,32.6,30.07,North,5,0.0,0.0,85,0.00,,,0.27,Wunderground v.1.15,2013-01-17 23:11:00,
2013-01-17 18:16:00,36.6,32.8,30.07,North,5,0.0,0.0,86,0.00,,,0.27,Wunderground v.1.15,2013-01-17 23:16:00,
2013-01-17 18:21:00,36.6,32.8,30.06,North,5,0.0,1.0,86,0.00,,,0.27,Wunderground v.1.15,2013-01-17 23:21:00,
2013-01-17 18:26:00,36.5,33.0,30.05,North,5,0.0,1.0,87,0.00,,,0.27,Wunderground v.1.15,2013-01-17 23:26:00,
2013-01-17 18:31:00,36.4,32.6,30.06,North,5,0.0,0.0,86,0.00,,,0.27,Wunderground v.1.15,2013-01-17 23:31:00,
2013-01-17 18:36:00,36.3,32.8,30.07,North,5,0.0,0.0,87,0.00,,,0.27,Wunderground v.1.15,2013-01-17 23:36:00,
2013-01-17 18:41:00,36.3,32.8,30.07,North,5,0.0,0.0,87,0.00,,,0.27,Wunderground v.1.15,2013-01-17 23:41:00,
2013-01-17 18:46:00,36.3,32.5,30.07,NNW,345,4.0,4.0,86,0.00,,,0.27,Wunderground v.1.15,2013-01-17 23:46:00,
2013-01-17 18:51:00,36.6,31.9,30.07,NNW,345,0.0,2.0,83,0.00,,,0.27,Wunderground v.1.15,2013-01-17 23:51:00,
2013-01-17 18:56:00,36.9,31.9,30.08,North,360,0.0,3.0,82,0.00,,,0.27,Wunderground v.1.15,2013-01-17 23:56:00,
2013-01-17 19:01:00,37.0,32.0,30.08,North,360,1.0,3.0,82,0.00,,,0.27,Wunderground v.1.15,2013-01-18 00:01:00,
2013-01-17 19:06:00,37.1,31.5,30.07,NE,45,3.0,4.0,80,0.00,,,0.27,Wunderground v.1.15,2013-01-18 00:06:00,
2013-01-17 19:11:00,37.1,31.5,30.07,NE,45,0.0,1.0,80,0.00,,,0.27,Wunderground v.1.15,2013-01-18 00:11:00,
2013-01-17 19:16:00,37.1,32.1,30.07,NE,45,1.0,2.0,82,0.00,,,0.27,Wunderground v.1.15,2013-01-18 00:16:00,
2013-01-17 19:21:00,37.0,31.7,30.07,NE,37,3.0,4.0,81,0.00,,,0.27,Wunderground v.1.15,2013-01-18 00:21:00,
2013-01-17 19:26:00,36.9,30.7,30.08,NE,35,7.0,7.0,78,0.00,,,0.27,Wunderground v.1.15,2013-01-18 00:26:00,
2013-01-17 19:31:00,37.0,30.5,30.08,NNE,19,1.0,3.0,77,0.00,,,0.27,Wunderground v.1.15,2013-01-18 00:31:00,
2013-01-17 19:36:00,37.0,30.1,30.08,NNW,342,2.0,5.0,76,0.00,,,0.27,Wunderground v.1.15,2013-01-18 00:36:00,
2013-01-17 19:41:00,37.2,29.0,30.08,NW,307,0.0,5.0,72,0.00,,,0.27,Wunderground v.1.15,2013-01-18 00:41:00,
2013-01-17 19:46:00,37.2,29.0,30.07,North,9,2.0,7.0,72,0.00,,,0.27,Wunderground v.1.15,2013-01-18 00:46:00,
2013-01-17 19:51:00,37.1,28.9,30.07,North,351,2.0,4.0,72,0.00,,,0.27,Wunderground v.1.15,2013-01-18 00:51:00,
2013-01-17 19:56:00,37.0,28.5,30.06,NNW,327,2.0,4.0,71,0.00,,,0.27,Wunderground v.1.15,2013-01-18 00:56:00,
2013-01-17 20:01:00,37.0,28.5,30.06,NNE,15,1.0,3.0,71,0.00,,,0.27,Wunderground v.1.15,2013-01-18 01:01:00,
2013-01-17 20:06:00,36.9,27.7,30.06,NW,317,5.0,11.0,69,0.00,,,0.27,Wunderground v.1.15,2013-01-18 01:06:00,
2013-01-17 20:11:00,36.8,26.9,30.07,NNW,336,2.0,5.0,67,0.00,,,0.27,Wunderground v.1.15,2013-01-18 01:11:00,
2013-01-17 20:16:00,36.7,27.1,30.06,NNW,336,3.0,5.0,68,0.00,,,0.27,Wunderground v.1.15,2013-01-18 01:16:00,
2013-01-17 20:22:00,36.6,27.0,30.06,North,351,3.0,3.0,68,0.00,,,0.27,Wunderground v.1.15,2013-01-18 01:22:00,
2013-01-17 20:27:00,36.4,26.5,30.07,NNW,346,0.0,4.0,67,0.00,,,0.27,Wunderground v.1.15,2013-01-18 01:27:00,
2013-01-17 20:32:00,36.3,26.4,30.07,North,355,2.0,6.0,67,0.00,,,0.27,Wunderground v.1.15,2013-01-18 01:32:00,
2013-01-17 20:37:00,36.2,26.6,30.07,North,355,0.0,6.0,68,0.00,,,0.27,Wunderground v.1.15,2013-01-18 01:37:00,
2013-01-17 20:42:00,36.2,26.6,30.08,NE,44,1.0,8.0,68,0.00,,,0.27,Wunderground v.1.15,2013-01-18 01:42:00,
2013-01-17 20:47:00,36.1,26.2,30.08,NNW,332,1.0,8.0,67,0.00,,,0.27,Wunderground v.1.15,2013-01-18 01:47:00,
2013-01-17 20:52:00,36.0,25.7,30.08,North,355,5.0,7.0,66,0.00,,,0.27,Wunderground v.1.15,2013-01-18 01:52:00,
2013-01-17 20:57:00,35.9,25.6,30.08,North,355,0.0,7.0,66,0.00,,,0.27,Wunderground v.1.15,2013-01-18 01:57:00,
2013-01-17 21:02:00,35.9,25.3,30.08,North,355,3.0,6.0,65,0.00,,,0.27,Wunderground v.1.15,2013-01-18 02:02:00,
2013-01-17 21:07:00,35.7,25.4,30.08,North,355,0.0,6.0,66,0.00,,,0.27,Wunderground v.1.15,2013-01-18 02:07:00,
2013-01-17 21:12:00,35.6,25.7,30.07,NNW,348,4.0,5.0,67,0.00,,,0.27,Wunderground v.1.15,2013-01-18 02:12:00,
2013-01-17 21:17:00,35.5,24.5,30.07,NNW,340,6.0,9.0,64,0.00,,,0.27,Wunderground v.1.15,2013-01-18 02:17:00,
2013-01-17 21:22:00,35.3,24.3,30.06,NW,321,3.0,5.0,64,0.00,,,0.27,Wunderground v.1.15,2013-01-18 02:22:00,
2013-01-17 21:27:00,35.2,24.2,30.05,North,355,1.0,8.0,64,0.00,,,0.27,Wunderground v.1.15,2013-01-18 02:27:00,
2013-01-17 21:32:00,35.0,22.5,30.04,NNE,13,3.0,7.0,60,0.00,,,0.27,Wunderground v.1.15,2013-01-18 02:32:00,
2013-01-17 21:37:00,34.8,22.7,30.05,NW,320,3.0,7.0,61,0.00,,,0.27,Wunderground v.1.15,2013-01-18 02:37:00,
2013-01-17 21:42:00,34.7,22.2,30.05,NNW,336,4.0,6.0,60,0.00,,,0.27,Wunderground v.1.15,2013-01-18 02:42:00,
2013-01-17 21:47:00,34.6,21.7,30.06,North,350,1.0,8.0,59,0.00,,,0.27,Wunderground v.1.15,2013-01-18 02:47:00,
2013-01-17 21:52:00,34.5,21.6,30.06,NNE,31,8.0,12.0,59,0.00,,,0.27,Wunderground v.1.15,2013-01-18 02:52:00,
2013-01-17 21:57:00,34.5,22.0,30.07,North,11,3.0,12.0,60,0.00,,,0.27,Wunderground v.1.15,2013-01-18 02:57:00,
2013-01-17 22:02:00,34.4,21.9,30.07,NNW,344,2.0,6.0,60,0.00,,,0.27,Wunderground v.1.15,2013-01-18 03:02:00,
2013-01-17 22:07:00,34.3,22.2,30.06,NW,304,3.0,8.0,61,0.00,,,0.27,Wunderground v.1.15,2013-01-18 03:07:00,
2013-01-17 22:12:00,34.2,22.1,30.06,NNW,337,6.0,6.0,61,0.00,,,0.27,Wunderground v.1.15,2013-01-18 03:12:00,
2013-01-17 22:17:00,34.2,22.1,30.05,NW,323,5.0,7.0,61,0.00,,,0.27,Wunderground v.1.15,2013-01-18 03:17:00,
2013-01-17 22:22:00,34.1,21.3,30.06,NNW,340,3.0,9.0,59,0.00,,,0.27,Wunderground v.1.15,2013-01-18 03:22:00,
2013-01-17 22:27:00,34.1,22.0,30.04,NNE,28,3.0,9.0,61,0.00,,,0.27,Wunderground v.1.15,2013-01-18 03:27:00,
2013-01-17 22:32:00,34.0,22.0,30.04,North,11,6.0,7.0,61,0.00,,,0.27,Wunderground v.1.15,2013-01-18 03:32:00,
2013-01-17 22:38:00,33.9,21.1,30.03,NNW,329,4.0,9.0,59,0.00,,,0.27,Wunderground v.1.15,2013-01-18 03:38:00,
2013-01-17 22:43:00,33.8,21.8,30.02,NNW,343,3.0,5.0,61,0.00,,,0.27,Wunderground v.1.15,2013-01-18 03:43:00,
2013-01-17 22:48:00,33.8,22.5,30.02,NNE,15,2.0,6.0,63,0.00,,,0.27,Wunderground v.1.15,2013-01-18 03:48:00,
2013-01-17 22:53:00,33.7,21.7,30.00,NNW,343,4.0,7.0,61,0.00,,,0.27,Wunderground v.1.15,2013-01-18 03:53:00,
2013-01-17 22:58:00,33.6,21.2,29.98,NNW,327,4.0,9.0,60,0.00,,,0.27,Wunderground v.1.15,2013-01-18 03:58:00,
2013-01-17 23:03:00,33.5,21.5,30.00,NNW,342,2.0,6.0,61,0.00,,,0.27,Wunderground v.1.15,2013-01-18 04:03:00,
2013-01-17 23:08:00,33.5,21.1,30.02,North,9,2.0,9.0,60,0.00,,,0.27,Wunderground v.1.15,2013-01-18 04:08:00,
2013-01-17 23:13:00,33.5,21.9,30.03,NNE,17,4.0,5.0,62,0.00,,,0.27,Wunderground v.1.15,2013-01-18 04:13:00,
2013-01-17 23:18:00,33.5,21.1,30.03,North,355,2.0,10.0,60,0.00,,,0.27,Wunderground v.1.15,2013-01-18 04:18:00,
2013-01-17 23:23:00,33.5,21.5,30.03,NNE,18,3.0,6.0,61,0.00,,,0.27,Wunderground v.1.15,2013-01-18 04:23:00,
2013-01-17 23:28:00,33.4,21.4,30.03,North,350,0.0,6.0,61,0.00,,,0.27,Wunderground v.1.15,2013-01-18 04:28:00,
2013-01-17 23:33:00,33.4,21.4,30.02,North,360,3.0,8.0,61,0.00,,,0.27,Wunderground v.1.15,2013-01-18 04:33:00,
2013-01-17 23:38:00,33.4,21.4,30.03,NNW,343,2.0,8.0,61,0.00,,,0.27,Wunderground v.1.15,2013-01-18 04:38:00,
2013-01-17 23:43:00,33.3,21.7,30.02,NNE,14,1.0,5.0,62,0.00,,,0.27,Wunderground v.1.15,2013-01-18 04:43:00,
2013-01-17 23:48:00,33.3,21.7,30.04,NNW,338,2.0,6.0,62,0.00,,,0.27,Wunderground v.1.15,2013-01-18 04:48:00,
2013-01-17 23:53:00,33.2,22.0,30.04,NNW,338,0.0,3.0,63,0.00,,,0.27,Wunderground v.1.15,2013-01-18 04:53:00,
2013-01-17 23:58:00,33.2,21.6,30.04,North,5,0.0,3.0,62,0.00,,,0.27,Wunderground v.1.15,2013-01-18 04:58:00,